Showing default

COSMOS 86, 1584

Orbit data source: Space-Track

COSMOS 86, 1584 is a payload satellite owned by OKB-10 (CIS) in LEO that was launched on Sat, 18 Sep 1965 UTC via a KOSMOS 65S3 launch vehicle from the Tyuratam Missile And Space Complex (TTMTR). Payload-class satellites include a variety of spacecraft equipped with specific instruments for various scientific and technological missions. These include communications satellites like Starlink; space stations such as the ISS; scientific satellites like the Hubble; Earth observation satellites from companies like Planet Labs, Umbra, and HawkEye 360; GPS; miniature CubeSats for education and research; and military/defense satellites.

Loading next visibility...
Identifier
1584, 1965-073A
Orbit
LEO
Country
Flag of CISCIS
Related business
Manufacturer
OKB-10
Mission
Spacecraft
Bus & Motor
STRELA-1 11F610, Unknown motor
Mass
50 kg wet, 50 kg dry
Launch date (UTC)
1965-09-18 (60 years ago)
Launch vehicle
KOSMOS 65S3
Launch site
Tyuratam Missile And Space Complex (TTMTR)
Object type
Payload
Rocket body
Debris
Shape & HBR
Unknown
Radar Cross Section
Medium (>0.1 m² and <1 m²)

Expand to show TLE details & history
Last TLE update: 1 day ago

TLE from 1 day ago
0 COSMOS 86
1  1584U 65073A   25306.52846970 -.00000097  00000-0 -50756-5 0  9992
2  1584  56.0611  34.4522 0212806 337.1973 110.5876 12.51914614749069
Epoch: 2025-11-02T12:40Z
TLE epoch observation values (Epoch: 2025-11-02T12:40:59.782Z)
Latitude
56.19048°
Longitude
-107.7568°
Altitude
1,525.851 km
Speed
7.081 km/s
True Right ascension
08h 18m 08s
True Declination
56° 02' 48"
Sunlit
Object was in daylight at epoch
Visualization orbit readout
Latitude
Unknown
Longitude
Unknown
Altitude
Unknown
Speed
Unknown
Apparent Right ascension
Unknown
Apparent Declination
Unknown
Sunlit
N/A
Visualization observer readout
Local Sidereal Time
18:11:47
Azimuth
Unknown
Elevation
Unknown
Doppler factor
Unknown
Orbital elements
Apogee altitude
1,623.041 km
Perigee altitude
1,289.597 km
Semi-major axis
7,834.456 km
Eccentricity
0.02128
Inclination
56.0611°
RAAN
34.4522°
Arg. of periapsis
337.1973°
True anomaly
112.84869°
Mean anomaly
110.5876°
Eccentric anomaly
111.72032°
Mean motion
3.1299 °/min
Orbital period
115.02 mins
BSTAR
-0.0000050756
Loading maneuver chart data...
Computing Atmospheric mass density...
Loading historical data...
Loading historical data...
Loading historical data...
Loading historical data...
Loading historical data...
Loading historical data...
Loading historical data...

Documentation

Showing up to 5 results
|